EW8275 Weather Reports


Display with metric or nautical units.
time (UTC)temp
F
wind
direction
speed
MPH
gust
MPH
rain 1hr
in
rain 24hr
in
rain mn
in
humidity
%
barometer
mb
20260509093539 65 17 2.0 6.0 0.00 0.00 0.00 56 1018.4
20260509093036 64 309 2.0 5.0 0.00 0.00 0.00 60 1018.4
20260509092546 63 104 1.0 3.0 0.00 0.00 0.00 60 1018.5
20260509092029 62 59 1.0 3.0 0.00 0.00 0.00 60 1018.5
20260509091544 63 99 1.0 5.0 0.00 0.00 0.00 62 1018.6
20260509091034 63 18 2.0 5.0 0.00 0.00 0.00 63 1018.6
20260509090557 61 160 1.0 5.0 0.00 0.00 0.00 63 1018.6
20260509090050 62 97 2.0 5.0 0.00 0.00 0.00 64 1018.6
20260509085544 61 138 2.0 4.0 0.00 0.00 0.00 64 1018.6
20260509085030 61 213 1.0 4.0 0.00 0.00 0.00 65 1018.6
20260509084544 60 119 1.0 4.0 0.00 0.00 0.00 67 1018.6
20260509084039 60 120 2.0 4.0 0.00 0.00 0.00 66 1018.6
20260509083618 60 89 2.0 6.0 0.00 0.00 0.00 68 1018.6
20260509083045 59 17 1.0 8.0 0.00 0.00 0.00 68 1018.5
20260509082544 59 37 2.0 4.0 0.00 0.00 0.00 70 1018.6
20260509082027 59 240 0.0 7.0 0.00 0.00 0.00 70 1018.5
20260509081559 59 31 5.0 7.0 0.00 0.00 0.00 71 1018.5
20260509081030 58 90 1.0 5.0 0.00 0.00 0.00 73 1018.5
20260509080604 58 318 1.0 4.0 0.00 0.00 0.00 74 1018.6
20260509080043 57 52 1.0 4.0 0.00 0.00 0.00 74 1018.6
20260509075537 57 355 2.0 6.0 0.00 0.00 0.00 75 1018.6
20260509075045 57 92 2.0 7.0 0.00 0.00 0.00 75 1018.6
20260509074543 57 83 2.0 7.0 0.00 0.00 0.00 77 1018.5
20260509074036 56 21 3.0 6.0 0.00 0.00 0.00 77 1018.6
20260509073549 56 211 2.0 4.0 0.00 0.00 0.00 77 1018.6
20260509073040 56 63 1.0 7.0 0.00 0.00 0.00 78 1018.6
20260509072611 56 104 2.0 7.0 0.00 0.00 0.00 79 1018.7
20260509072041 55 74 1.0 6.0 0.00 0.00 0.00 79 1018.6
20260509071544 55 97 2.0 6.0 0.00 0.00 0.00 80 1018.6
20260509071030 55 170 2.0 6.0 0.00 0.00 0.00 80 1018.7
20260509070607 54 24 1.0 4.0 0.00 0.00 0.00 81 1018.8
20260509070054 54 5 2.0 4.0 0.00 0.00 0.00 81 1018.8
20260509065553 54 76 1.0 3.0 0.00 0.00 0.00 83 1018.8
20260509065034 53 96 1.0 3.0 0.00 0.00 0.00 82 1018.7
20260509064539 53 83 2.0 5.0 0.00 0.00 0.00 83 1018.7
20260509064040 52 348 2.0 6.0 0.00 0.00 0.00 83 1018.7
20260509063540 52 32 2.0 6.0 0.00 0.00 0.00 84 1018.7
20260509063026 52 98 2.0 4.0 0.00 0.00 0.00 84 1018.7
20260509062530 51 67 1.0 4.0 0.00 0.00 0.00 85 1018.7
20260509062045 51 46 2.0 4.0 0.00 0.00 0.00 85 1018.7
20260509061540 51 67 2.0 3.0 0.00 0.00 0.00 85 1018.7
20260509061052 51 65 2.0 3.0 0.00 0.00 0.00 85 1018.7
20260509060550 50 67 1.0 5.0 0.00 0.00 0.00 86 1018.8
20260509060036 50 98 3.0 5.0 0.00 0.00 0.00 86 1018.7
20260509055528 50 53 2.0 5.0 0.00 0.00 0.00 86 1018.7
20260509055030 50 81 1.0 2.0 0.00 0.00 0.00 87 1018.7
20260509054604 50 74 1.0 3.0 0.00 0.00 0.00 87 1018.8
20260509054044 49 84 2.0 3.0 0.00 0.00 0.00 88 1018.7
20260509053528 49 36 1.0 5.0 0.00 0.00 0.00 88 1018.6
20260509053035 49 360 2.0 5.0 0.00 0.00 0.00 89 1018.6
20260509052543 49 46 2.0 5.0 0.00 0.00 0.00 89 1018.5
20260509052033 48 82 1.0 3.0 0.00 0.00 0.00 90 1018.5
20260509051543 48 121 1.0 3.0 0.00 0.00 0.00 91 1018.5
20260509051027 48 38 1.0 3.0 0.00 0.00 0.00 91 1018.5
20260509050540 47 67 1.0 2.0 0.00 0.00 0.00 91 1018.5
20260509050057 47 53 1.0 2.0 0.00 0.00 0.00 91 1018.5
20260509045544 47 88 0.0 3.0 0.00 0.00 0.00 91 1018.5
20260509045029 47 55 0.0 3.0 0.00 0.00 0.00 92 1018.4
20260509044534 47 38 0.0 1.0 0.00 0.00 0.00 91 1018.4
20260509044048 47 38 0.0 1.0 0.00 0.00 0.00 91 1018.3
20260509043529 47 38 0.0 1.0 0.00 0.00 0.00 91 1018.3
20260509043044 47 38 0.0 1.0 0.00 0.00 0.00 91 1018.3
20260509042550 47 38 0.0 1.0 0.00 0.00 0.00 90 1018.2
20260509042040 47 38 0.0 2.0 0.00 0.00 0.00 90 1018.2
20260509041545 47 43 0.0 2.0 0.00 0.00 0.00 90 1018.1
20260509041100 47 35 1.0 2.0 0.00 0.00 0.00 90 1018.1
20260509040542 47 35 1.0 2.0 0.00 0.00 0.00 90 1018.1
20260509040044 47 35 1.0 3.0 0.00 0.00 0.00 90 1018.1
20260509035547 47 42 1.0 3.0 0.00 0.00 0.00 90 1018.1
20260509035042 47 32 0.0 2.0 0.00 0.00 0.00 90 1018.1
20260509034559 47 18 1.0 2.0 0.00 0.00 0.00 90 1018.1
20260509034030 47 78 0.0 1.0 0.00 0.00 0.00 90 1018.2
20260509033608 47 78 0.0 1.0 0.00 0.00 0.00 90 1018.2
20260509033029 47 78 0.0 1.0 0.00 0.00 0.00 89 1018.2
20260509032548 47 78 0.0 1.0 0.00 0.00 0.00 89 1018.2
20260509032038 47 78 0.0 2.0 0.00 0.00 0.00 89 1018.2
20260509031539 48 78 0.0 2.0 0.00 0.00 0.00 89 1018.3
20260509031102 48 93 0.0 2.0 0.00 0.00 0.00 89 1018.3
20260509030559 48 93 0.0 3.0 0.00 0.00 0.00 89 1018.3
20260509030032 48 87 1.0 5.0 0.00 0.00 0.00 90 1018.3
20260509025539 48 95 2.0 6.0 0.00 0.00 0.00 90 1018.3
20260509025029 48 10 0.0 2.0 0.00 0.00 0.00 90 1018.3
20260509024530 47 99 0.0 3.0 0.00 0.00 0.00 90 1018.3
20260509024047 47 30 0.0 3.0 0.00 0.00 0.00 90 1018.3
20260509023539 47 30 1.0 3.0 0.00 0.00 0.00 91 1018.3
20260509023053 47 30 0.0 1.0 0.00 0.00 0.00 90 1018.3
20260509022539 47 30 0.0 2.0 0.00 0.00 0.00 90 1018.3
20260509022031 47 30 0.0 2.0 0.00 0.00 0.00 90 1018.4
20260509021615 47 30 0.0 1.0 0.00 0.00 0.00 90 1018.3
20260509021044 47 30 0.0 0.0 0.00 0.00 0.00 90 1018.3
20260509020557 47 30 0.0 0.0 0.00 0.00 0.00 90 1018.3
20260509020036 47 30 0.0 0.0 0.00 0.00 0.00 90 1018.2
20260509015545 47 30 0.0 2.0 0.00 0.00 0.00 89 1018.3
20260509015104 47 30 0.0 2.0 0.00 0.00 0.00 89 1018.3
20260509014559 47 30 1.0 2.0 0.00 0.00 0.00 89 1018.4
20260509014037 47 30 0.0 1.0 0.00 0.00 0.00 89 1018.4
20260509013533 47 30 0.0 1.0 0.00 0.00 0.00 88 1018.4
20260509013031 48 30 0.0 0.0 0.00 0.00 0.00 87 1018.4
20260509012544 48 30 0.0 0.0 0.00 0.00 0.00 87 1018.4
20260509012025 48 30 0.0 0.0 0.00 0.00 0.00 87 1018.4
20260509011554 48 30 0.0 1.0 0.00 0.00 0.00 86 1018.4
20260509011034 48 30 0.0 1.0 0.00 0.00 0.00 86 1018.5
20260509010544 48 30 0.0 0.0 0.00 0.00 0.00 86 1018.5
20260509010029 48 30 0.0 0.0 0.00 0.00 0.00 86 1018.5
20260509005544 48 30 0.0 0.0 0.00 0.00 0.00 86 1018.4
20260509005030 49 30 0.0 1.0 0.00 0.00 0.00 85 1018.4
20260509004535 49 30 0.0 1.0 0.00 0.00 0.00 85 1018.4
20260509004035 49 30 0.0 1.0 0.00 0.00 0.00 85 1018.3
20260509003558 49 30 0.0 0.0 0.00 0.00 0.00 85 1018.3
20260509003026 49 30 0.0 1.0 0.00 0.00 0.00 85 1018.3
20260509002609 49 30 0.0 1.0 0.00 0.00 0.00 85 1018.3
20260509002101 49 30 0.0 1.0 0.00 0.00 0.00 85 1018.3
20260509001539 49 30 0.0 1.0 0.00 0.00 0.00 86 1018.3
20260509001033 49 30 0.0 1.0 0.00 0.00 0.00 86 1018.3
20260509000600 49 30 0.0 1.0 0.00 0.00 0.00 87 1018.3
20260509000040 49 30 0.0 0.0 0.00 0.00 0.00 87 1018.3
20260508235533 49 30 0.0 0.0 0.00 0.00 0.00 88 1018.3
20260508235038 49 30 0.0 0.0 0.00 0.00 0.00 88 1018.3
20260508234530 49 30 0.0 0.0 0.00 0.00 0.00 89 1018.3
20260508234027 49 30 0.0 0.0 0.00 0.00 0.00 89 1018.4
20260508233556 49 30 0.0 1.0 0.00 0.00 0.00 89 1018.3
20260508233042 49 30 0.0 1.0 0.00 0.00 0.00 89 1018.3
20260508232544 49 30 0.0 1.0 0.00 0.00 0.00 89 1018.4
20260508232033 49 30 0.0 1.0 0.00 0.00 0.00 89 1018.3
20260508231538 49 30 0.0 0.0 0.00 0.00 0.00 89 1018.3
20260508231036 49 30 0.0 0.0 0.00 0.00 0.00 89 1018.3
20260508230535 49 30 0.0 0.0 0.00 0.00 0.00 89 1018.3
20260508230029 49 30 0.0 0.0 0.00 0.00 0.00 89 1018.2
20260508225544 49 30 0.0 0.0 0.00 0.00 0.00 88 1018.1
20260508225040 49 30 0.0 0.0 0.00 0.00 0.00 88 1018.2
20260508224610 50 30 0.0 1.0 0.00 0.00 0.00 88 1018.3
20260508224043 50 30 0.0 1.0 0.00 0.00 0.00 87 1018.3
20260508223531 50 30 0.0 0.0 0.00 0.00 0.00 86 1018.4
20260508223045 50 30 0.0 0.0 0.00 0.00 0.00 86 1018.3
20260508222535 50 30 0.0 0.0 0.00 0.00 0.00 85 1018.4
20260508222027 50 30 0.0 0.0 0.00 0.00 0.00 85 1018.3
20260508221545 50 30 0.0 0.0 0.00 0.00 0.00 85 1018.3
20260508221045 50 30 0.0 0.0 0.00 0.00 0.00 85 1018.3
20260508220547 51 30 0.0 0.0 0.00 0.00 0.00 85 1018.3
20260508220029 51 30 0.0 0.0 0.00 0.00 0.00 84 1018.3
20260508215540 51 30 0.0 0.0 0.00 0.00 0.00 83 1018.3
20260508215025 51 30 0.0 2.0 0.00 0.00 0.00 82 1018.2
20260508214543 51 30 0.0 2.0 0.00 0.00 0.00 81 1018.3
20260508214032 51 30 0.0 0.0 0.00 0.00 0.00 81 1018.3
20260508213600 52 30 0.0 1.0 0.00 0.00 0.00 81 1018.3
20260508213030 52 30 0.0 1.0 0.00 0.00 0.00 80 1018.3
20260508212556 52 30 0.0 0.0 0.00 0.00 0.00 79 1018.3
20260508212025 52 30 0.0 0.0 0.00 0.00 0.00 79 1018.3
20260508211537 52 30 0.0 0.0 0.00 0.00 0.00 79 1018.3
20260508211045 52 30 0.0 0.0 0.00 0.00 0.00 78 1018.3
20260508210609 53 30 0.0 0.0 0.00 0.00 0.00 77 1018.3
20260508210034 53 30 0.0 0.0 0.00 0.00 0.00 76 1018.3
20260508205546 53 30 0.0 0.0 0.00 0.00 0.00 75 1018.2
20260508205038 54 30 0.0 0.0 0.00 0.00 0.00 74 1018.2
20260508204552 54 30 0.0 2.0 0.00 0.00 0.00 73 1018.1
20260508204050 54 30 1.0 2.0 0.00 0.00 0.00 72 1018.1
20260508203534 54 30 0.0 2.0 0.00 0.00 0.00 72 1018.2
20260508203101 55 30 0.0 2.0 0.00 0.00 0.00 72 1018.2
20260508202544 55 30 0.0 0.0 0.00 0.00 0.00 70 1018.2
20260508202031 56 30 0.0 2.0 0.00 0.00 0.00 70 1018.2
20260508201618 56 30 0.0 2.0 0.00 0.00 0.00 70 1018.2
20260508201045 56 17 0.0 2.0 0.00 0.00 0.00 69 1018.2
20260508200540 56 17 0.0 2.0 0.00 0.00 0.00 69 1018.2
20260508200028 57 40 0.0 2.0 0.00 0.00 0.00 69 1018.2
20260508195535 57 40 0.0 1.0 0.00 0.00 0.00 69 1018.2
20260508195059 57 40 0.0 1.0 0.00 0.00 0.00 69 1018.1
20260508194554 57 40 0.0 1.0 0.00 0.00 0.00 69 1018.1
20260508194101 57 40 0.0 2.0 0.00 0.00 0.00 69 1018.1
20260508193542 58 9 0.0 2.0 0.00 0.00 0.00 69 1018.1
20260508193046 58 9 0.0 2.0 0.00 0.00 0.00 68 1018.0
20260508192540 58 9 0.0 2.0 0.00 0.00 0.00 67 1018.0
20260508192040 58 35 0.0 1.0 0.00 0.00 0.00 66 1017.9
20260508191543 58 355 0.0 3.0 0.00 0.00 0.00 67 1017.9
20260508191032 58 32 1.0 4.0 0.00 0.00 0.00 66 1017.7
20260508190549 58 35 0.0 4.0 0.00 0.00 0.00 65 1017.7
20260508190040 58 342 0.0 4.0 0.00 0.00 0.00 65 1017.7
20260508185550 58 18 1.0 4.0 0.00 0.00 0.00 64 1017.6
20260508185042 58 48 0.0 2.0 0.00 0.00 0.00 64 1017.5
20260508184552 59 5 0.0 1.0 0.00 0.00 0.00 64 1017.5
20260508184047 59 17 0.0 2.0 0.00 0.00 0.00 63 1017.4
20260508183536 59 43 1.0 2.0 0.00 0.00 0.00 61 1017.4
20260508183055 60 35 0.0 2.0 0.00 0.00 0.00 60 1017.3
20260508182539 60 11 0.0 3.0 0.00 0.00 0.00 60 1017.3
20260508182037 60 22 1.0 3.0 0.00 0.00 0.00 58 1017.3
20260508181530 61 34 1.0 3.0 0.00 0.00 0.00 58 1017.3
20260508181030 61 34 1.0 4.0 0.00 0.00 0.00 57 1017.2
20260508180532 61 28 2.0 4.0 0.00 0.00 0.00 57 1017.2
20260508180027 61 53 1.0 3.0 0.00 0.00 0.00 58 1017.2
20260508175605 61 86 2.0 3.0 0.00 0.00 0.00 56 1017.1
20260508175051 61 14 0.0 4.0 0.00 0.00 0.00 56 1017.1
20260508174537 62 31 1.0 3.0 0.00 0.00 0.00 55 1017.1
20260508174029 62 30 2.0 5.0 0.00 0.00 0.00 55 1017.1
20260508173547 62 49 2.0 5.0 0.00 0.00 0.00 56 1017.1
20260508173038 62 71 1.0 4.0 0.00 0.00 0.00 57 1017.0
20260508172545 62 26 0.0 4.0 0.00 0.00 0.00 57 1016.9
20260508172035 62 9 1.0 4.0 0.00 0.00 0.00 56 1017.0
20260508171617 62 38 0.0 4.0 0.00 0.00 0.00 56 1016.9
20260508171039 62 18 2.0 4.0 0.00 0.00 0.00 57 1016.9
20260508170548 62 40 2.0 3.0 0.00 0.00 0.00 55 1016.9
20260508170030 63 49 2.0 4.0 0.00 0.00 0.00 57 1016.9
20260508165531 62 58 0.0 4.0 0.00 0.00 0.00 57 1016.9
20260508165029 63 76 2.0 4.0 0.00 0.00 0.00 56 1016.8
20260508164534 63 80 1.0 4.0 0.00 0.00 0.00 55 1016.7
20260508164029 63 20 0.0 5.0 0.00 0.00 0.00 57 1016.7
20260508163540 63 100 0.0 6.0 0.00 0.00 0.00 54 1016.7
20260508163026 63 355 2.0 6.0 0.00 0.00 0.00 56 1016.7
20260508162537 64 107 1.0 6.0 0.00 0.00 0.00 54 1016.7
20260508162103 64 71 2.0 6.0 0.00 0.00 0.00 54 1016.6
20260508161556 64 74 2.0 5.0 0.00 0.00 0.00 52 1016.6
20260508161049 64 34 3.0 8.0 0.00 0.00 0.00 55 1016.7
20260508160541 64 36 2.0 8.0 0.00 0.00 0.00 55 1016.6
20260508160027 64 32 1.0 7.0 0.00 0.00 0.00 55 1016.6
20260508155607 65 42 2.0 5.0 0.00 0.00 0.00 55 1016.6
20260508155053 65 86 3.0 7.0 0.00 0.00 0.00 52 1016.6
20260508154542 64 81 2.0 7.0 0.00 0.00 0.00 52 1016.7
20260508154100 65 94 2.0 7.0 0.00 0.00 0.00 51 1016.7
20260508153607 65 59 2.0 6.0 0.00 0.00 0.00 51 1016.7
20260508153056 65 360 3.0 6.0 0.00 0.00 0.00 53 1016.7
20260508152533 65 44 2.0 5.0 0.00 0.00 0.00 54 1016.7
20260508152038 65 42 3.0 5.0 0.00 0.00 0.00 51 1016.8
20260508151534 64 27 1.0 5.0 0.00 0.00 0.00 54 1016.8
20260508151051 64 9 2.0 5.0 0.00 0.00 0.00 53 1016.8
20260508150538 64 360 1.0 5.0 0.00 0.00 0.00 55 1016.9
20260508150033 64 17 3.0 5.0 0.00 0.00 0.00 53 1016.9
20260508145541 64 40 2.0 5.0 0.00 0.00 0.00 52 1017.0
20260508145048 64 81 2.0 5.0 0.00 0.00 0.00 53 1016.9
20260508144556 64 24 2.0 5.0 0.00 0.00 0.00 53 1016.9
20260508144042 64 107 2.0 4.0 0.00 0.00 0.00 53 1016.9
20260508143543 64 193 1.0 5.0 0.00 0.00 0.00 53 1016.9
20260508143126 63 286 0.0 5.0 0.00 0.00 0.00 51 1016.9
20260508142544 64 5 2.0 4.0 0.00 0.00 0.00 54 1017.0
20260508142048 64 12 2.0 5.0 0.00 0.00 0.00 56 1017.0
20260508141559 63 74 1.0 4.0 0.00 0.00 0.00 56 1017.0
20260508141106 64 89 1.0 5.0 0.00 0.00 0.00 54 1017.1
20260508140544 64 23 2.0 5.0 0.00 0.00 0.00 53 1017.0
20260508140031 64 52 1.0 4.0 0.00 0.00 0.00 55 1017.1
20260508135534 64 94 2.0 3.0 0.00 0.00 0.00 53 1017.1
20260508135038 64 308 2.0 4.0 0.00 0.00 0.00 53 1017.2
20260508134605 64 138 1.0 4.0 0.00 0.00 0.00 52 1017.2
20260508134028 64 79 0.0 2.0 0.00 0.00 0.00 54 1017.1
20260508133554 64 36 0.0 2.0 0.00 0.00 0.00 52 1017.1
20260508133042 64 5 0.0 3.0 0.00 0.00 0.00 54 1017.2
20260508132539 63 84 2.0 4.0 0.00 0.00 0.00 54 1017.2
20260508132043 64 80 3.0 4.0 0.00 0.00 0.00 52 1017.2
20260508131623 63 49 2.0 4.0 0.00 0.00 0.00 54 1017.2
20260508131047 64 69 2.0 5.0 0.00 0.00 0.00 52 1017.2
20260508130544 64 26 1.0 4.0 0.00 0.00 0.00 49 1017.1
20260508130044 65 169 2.0 4.0 0.00 0.00 0.00 49 1017.2
20260508125547 64 46 2.0 6.0 0.00 0.00 0.00 50 1017.2
20260508125042 65 89 2.0 6.0 0.00 0.00 0.00 49 1017.2
20260508124547 65 5 1.0 6.0 0.00 0.00 0.00 49 1017.2
20260508124103 66 40 2.0 5.0 0.00 0.00 0.00 48 1017.2
20260508123554 66 92 2.0 6.0 0.00 0.00 0.00 52 1017.3
20260508123056 67 18 1.0 6.0 0.00 0.00 0.00 52 1017.3
20260508122602 66 34 2.0 6.0 0.00 0.00 0.00 52 1017.3
20260508122043 68 337 2.0 6.0 0.00 0.00 0.00 52 1017.2
20260508121546 66 41 2.0 5.0 0.00 0.00 0.00 55 1017.3
20260508121031 65 80 2.0 5.0 0.00 0.00 0.00 56 1017.3
20260508120546 65 327 1.0 6.0 0.00 0.00 0.00 53 1017.3
20260508120028 67 146 2.0 6.0 0.00 0.00 0.00 56 1017.3
20260508115600 65 23 1.0 4.0 0.00 0.00 0.00 60 1017.3
20260508115043 66 105 2.0 8.0 0.00 0.00 0.00 56 1017.3
20260508114537 67 101 3.0 8.0 0.00 0.00 0.00 56 1017.3
20260508114031 65 192 0.0 4.0 0.00 0.00 0.00 57 1017.3
20260508113530 64 41 1.0 5.0 0.00 0.00 0.00 56 1017.4
20260508113106 66 136 2.0 8.0 0.00 0.00 0.00 57 1017.4
20260508112610 65 44 3.0 8.0 0.00 0.00 0.00 59 1017.4
20260508112054 65 87 3.0 6.0 0.00 0.00 0.00 60 1017.4
20260508111546 65 62 3.0 6.0 0.00 0.00 0.00 62 1017.5
20260508111030 63 121 1.0 5.0 0.00 0.00 0.00 64 1017.5
20260508110536 62 355 2.0 5.0 0.00 0.00 0.00 66 1017.6
20260508110039 62 178 0.0 5.0 0.00 0.00 0.00 62 1017.5
20260508105550 61 85 1.0 5.0 0.00 0.00 0.00 64 1017.6
20260508105051 62 61 2.0 5.0 0.00 0.00 0.00 66 1017.5
20260508104536 61 84 2.0 5.0 0.00 0.00 0.00 66 1017.6
20260508104031 61 82 2.0 5.0 0.00 0.00 0.00 66 1017.6
20260508103547 62 23 2.0 5.0 0.00 0.00 0.00 66 1017.6
20260508103028 61 126 1.0 5.0 0.00 0.00 0.00 67 1017.6
20260508102535 62 81 1.0 5.0 0.00 0.00 0.00 67 1017.7
20260508102033 61 290 1.0 4.0 0.00 0.00 0.00 67 1017.7
20260508101552 60 100 2.0 5.0 0.00 0.00 0.00 69 1017.7
20260508101103 60 126 2.0 5.0 0.00 0.00 0.00 69 1017.7
20260508100536 60 344 2.0 5.0 0.00 0.00 0.00 71 1017.7
20260508100037 60 116 1.0 5.0 0.00 0.00 0.00 69 1017.9
20260508095529 59 44 1.0 4.0 0.00 0.00 0.00 70 1017.8
20260508095036 59 101 2.0 4.0 0.00 0.00 0.00 71 1017.8
20260508094602 58 355 1.0 6.0 0.00 0.00 0.00 71 1017.9
20260508094028 59 112 3.0 6.0 0.00 0.00 0.00 72 1017.9